Hourly Weather Roundup
Issued by NWS Central Illinois

Home | Current Version | Previous Version | Text Only | Print | Product List | Glossary On
Versions: 1 2 3 4 5 6 7 8 9 10 11 12 13 14 15 16 17 18 19 20 21 22 23 24 25 26 27 28 29 30 31 32 33 34 35 36 37 38 39 40 41 42 43 44 45 46 47 48 49 50
000
NZUS43 KILX 242310
HWRILX

AREA WEATHER ROUNDUP
NATIONAL WEATHER SERVICE, LINCOLN IL
600 PM CDT THU JUL 24 2014


CITY           SKY/WX    TMP DP  RH WIND       PRES   REMARKS
BLOOMINGTON    SUNNY     75  52  44 NE6       30.09S
CHAMPAIGN      SUNNY     76  55  48 NE7       30.08R
DECATUR        SUNNY     76  56  49 E7        30.07S
FLORA          SUNNY     78  54  44 NE10      30.05S
GALESBURG      CLOUDY    79  57  45 CALM      30.09S HX  80
JACKSONVILLE   MOSUNNY   78  56  45 E7        30.08F
LACON          SUNNY     76  52  42 E5        30.06F
LAWRENCEVILLE  MOSUNNY   79  57  46 N10       30.04S HX  80
LITCHFIELD     SUNNY     76  53  44 N5        30.07R
$$


CITY           SKY/WX    TMP DP  RH WIND       PRES   REMARKS
LINCOLN        SUNNY     77  54  45 NE3       30.05F
MACOMB         MOSUNNY   76  56  48 CALM      30.11S
MATTOON        SUNNY     76  55  48 N6        30.06R
MT CARMEL AP   MOSUNNY   81  55  41 N5        30.04S HX  80
OLNEY-NOBLE AP MOSUNNY   77  59  53 N6        30.05S
PARIS          PTSUNNY   77  58  52 N5        30.07R
PEORIA         MOSUNNY   79  53  40 VRB3      30.07F
PONTIAC        SUNNY     75  54  46 CALM      30.07F
RANTOUL        SUNNY     77  50  39 CALM      30.08S
ROBINSON       SUNNY     77  60  55 NE3       30.06R
SPRINGFIELD    SUNNY     78  54  43 E6        30.08R
TAYLORVILLE    SUNNY     73  54  49 NE6       30.07R
$$

...REGIONAL REPORTS...


CITY           SKY/WX    TMP DP  RH WIND       PRES   REMARKS
CHICAGO O`HARE MOSUNNY   74  43  32 E7        30.09S
KANKAKEE       SUNNY     73  54  49 CALM      30.09R
MOLINE         PTSUNNY   76  55  48 S3        30.07F
MOUNT VERNON   MOSUNNY   79  57  47 N6        30.05F HX  80
PITTSFIELD     MOSUNNY   78  55  44 NE3       30.09S
QUINCY         MOSUNNY   78  54  43 N5        30.08S
ROCKFORD       PTSUNNY   74  53  48 SW7       30.09F
$$


CITY           SKY/WX    TMP DP  RH WIND       PRES   REMARKS
BURLINGTON     MOSUNNY   76  56  49 CALM      30.09S
CEDAR RAPIDS   PTSUNNY   74  60  61 S9        30.06F
DES MOINES     LGT RAIN  74  63  68 NE7       30.06R
KIRKSVILLE     MOSUNNY   79  58  48 SE5       30.10F HX  80
OTTUMWA        CLOUDY    73  61  65 SE10      30.03F
ST LOUIS       PTSUNNY   80  52  37 E5        30.06R HX  80
$$


CITY           SKY/WX    TMP DP  RH WIND       PRES   REMARKS
TERRE HAUTE    SUNNY     77  58  51 N5        30.05R
EVANSVILLE     SUNNY     80  54  40 NE8       30.02F HX  80
INDIANAPOLIS   MOSUNNY   75  50  41 N9        30.04S
LAFAYETTE      MOSUNNY   75  52  44 N3        30.06S
MADISON        PTSUNNY   77  54  44 VRB3      30.07S
MILWAUKEE      MOSUNNY   68  44  42 SE10      30.09F
$$




USA.gov is the U.S. government's official web portal to all federal, state and local government web resources and services.